Location: LDNL
(36.4545°S, 141.6685°E)
Time: 22:59:18
(UTC+10:00)

Envisat - Pass Details

Date: 29 June 2022
Orbit: 763 x 765 km, 98.2° (Epoch: 16 August)

Event Time Altitude Azimuth Distance (km) Brightness Sun altitude
Rises 17:51:51 0° 179° (S) 3,265 6.0 -5.2°
Reaches altitude 10° 17:54:23 10° 189° (S) 2,332 5.4 -5.6°
Maximum altitude 17:58:51 31° 249° (WSW) 1,340 4.8 -6.5°
Drops below altitude 10° 18:03:16 10° 310° (NW) 2,307 7.0 -7.3°
Sets 18:05:47 0° 320° (NW) 3,226 7.5 -7.7°
